Regional Weather Roundup
Issued by NWS

Home | Current Version | Previous Version | Text Only | Print | Product List | Glossary On
Versions: 1 2 3 4 5 6 7 8 9 10 11 12 13 14 15 16 17 18 19 20 21 22 23 24 25 26 27
000
ASUS42 KTBW 251117
RWRFL
FLORIDA REGIONAL WEATHER ROUNDUP
NATIONAL WEATHER SERVICE TAMPA BAY RUSKIN FL
700 AM EDT WED MAY 25 2016

NOTE: "FAIR" INDICATES FEW OR NO CLOUDS BELOW 12,000 FEET WITH NO
SIGNIFICANT WEATHER AND/OR OBSTRUCTIONS TO VISIBILITY.

FLZ001>010-012>015-112-114-115-251200-
PANHANDLE FLORIDA

CITY           SKY/WX    TMP DP  RH WIND       PRES   REMARKS
PENSACOLA      CLEAR     65  62  90 CALM      30.15R
MILTON NAS     PTCLDY    59  59 100 CALM      30.15
CRESTVIEW      CLEAR     57  55  93 CALM      30.16R FOG
DUKE FIELD     FAIR      58  57  94 CALM      30.14R FOG
VALPARAISO     PTCLDY    62  59  89 N2        30.15R
MARY ESTHER    CLEAR     62  60  94 N5        30.14R
TRI COUNTY     FAIR      61  59  93 CALM      30.19R
PANAMA CITY    FAIR      63  59  87 CALM      30.15R
TYNDALL AFB    CLEAR     66  61  84 CALM      30.15R
APALACHICOLA   CLEAR     64  63  96 CALM      30.14R

STATION/POSITION SKY/WX   TEMP    WIND        PRES    WAVE   SWELL
                          AIR SEA DIR/SP/G            HT/PER HT/PER
                          (F)     (DEG/KT/KT) (MB)    (FT/S) (FT/S)
30.1N   87.6W              77 78  130/  4/  4 1020.0R   1/ 4
29.2N   88.2W              77 77  180/  6/  6 1019.0S
28.8N   86.0W              76 80  110/  8/ 10 1020.3R   1
PANAMA CITY BEAC           70 74   50/  3/  7 1020.5R
TOWER C                    77     140/ 13/ 14 1021.1R
28.5N   84.5W              78 78  150/ 14/ 16 1019.6R   1/ 3

$$
FLZ011-016>038-118-127-128-134-139-239-251200-
NORTH FLORIDA

CITY           SKY/WX    TMP DP  RH WIND       PRES   REMARKS
MARIANNA       CLEAR     65  61  87 NE3       30.16R
TALLAHASSEE    PTCLDY    68  62  81 E5        30.16R
PERRY          PTCLDY    67  59  76 E3        30.18R
LIVE OAK       FAIR      64  63  94 CALM      30.20R
CROSS CITY       N/A     68  59  73 E3        30.16R
LAKE CITY      FAIR      61  61 100 CALM      30.19R
GAINESVILLE    CLEAR     62  59  90 CALM      30.19R
WILLISTON      FAIR      64  61  88 CALM      30.19R
PALATKA        FAIR      59  59 100 CALM      30.19R
MAYPORT NAS    PTCLDY    69  63  81 CALM      30.19R
JACKSONVILLE   MOCLDY    64  63  96 CALM      30.20R
JAX NAS        PTCLDY    76  62  62 S7        30.20R
JAX CECIL      PTCLDY    68  59  73 CALM      30.19R
FERNANDINA BEA FAIR      68  64  88 CALM      30.19R
ST AUGUSTINE   CLEAR     68  62  81 CALM      30.20R
PALM COAST     CLEAR     63  63 100 CALM      30.19R

STATION/POSITION SKY/WX   TEMP    WIND        PRES    WAVE   SWELL
                          AIR SEA DIR/SP/G            HT/PER HT/PER
                          (F)     (DEG/KT/KT) (MB)    (FT/S) (FT/S)
SHELL POINT                78     150/ 17/ 20 1019.2
KEATON BEACH               67      90/  5/  7 1021.3R
CEDAR KEY                  75     120/ 13/ 14 1021.9R
FERNANDINA                 71 79              1021.8R
30.7N   81.3W                 77                N/A     2/ 8
MAYPORT                    72 79  290/  1/  3 1022.2R
31.4N   80.9W              76 75  190/  6/  8 1022.5R   2/ 9   2/ 9
ST AUGUSTINE               77 78  160/ 11/ 13 1023.1R

$$
FLZ040-043>046-052-053-057-058-063-144-251200-
INTERIOR CENTRAL FLORIDA

CITY           SKY/WX    TMP DP  RH WIND       PRES   REMARKS
OCALA          CLEAR     64  57  77 CALM      30.18R
THE VILLAGES     N/A     68  64  88 CALM      30.09R
LEESBURG       CLEAR     73  65  75 SE7       30.18R
SANFORD        CLEAR     70  62  76 E5        30.18R
ORLANDO EXEC   MOCLDY    71  64  78 E3        30.18R
ORLANDO INTL   PTCLDY    70  63  78 NE5       30.18R
KISSIMMEE      CLEAR     72  66  83 CALM      30.18
WINTER HAVEN   PTCLDY    71  65  81 CALM      30.18R
LAKELAND       CLEAR     72  66  83 E5        30.17R
BARTOW         FAIR      66  66 100 E6        30.18R
OKEECHOBEE     CLEAR     64  64 100 CALM      30.17R

$$
FLZ041-047-054-059-064-141-147-251200-
EAST CENTRAL FLORIDA

CITY           SKY/WX    TMP DP  RH WIND       PRES   REMARKS
DAYTONA BEACH  PTCLDY    69  65  86 CALM      30.19R
DELAND           N/A     66  63  88 CALM      30.20R
NEW SMYRNA BEA PTCLDY    75  64  69 SE9       30.19
JFK SPACE CTR  MOCLDY    72  63  72 E5        30.17R
TITUSVILLE     PTCLDY    72  70  94 E6        30.18
CAPE CANAVERAL CLEAR     74  63  68 E6        30.17R
PATRICK AFB    CLEAR     77  64  63 E9        30.17R
MELBOURNE      CLEAR     77  63  61 E12       30.17R
VERO BEACH     CLEAR     77  63  61 E9        30.17R
FT PIERCE      CLEAR     75  65  70 E9        30.16R
STUART         PTCLDY    81  68  65 E10       30.16S

STATION/POSITION SKY/WX   TEMP    WIND        PRES    WAVE   SWELL
                          AIR SEA DIR/SP/G            HT/PER HT/PER
                          (F)     (DEG/KT/KT) (MB)    (FT/S) (FT/S)
28.5N   80.2W              78 79  110/ 12/ 14 1021.8R
28.9N   78.5W              76 78   80/  6/  8 1022.3R
TRIDENT PIER               76 80  100/  7/ 11 1021.4R
28.4N   80.5W                 80                N/A     3/ 4
27.5N   80.2W                 80                N/A     3/ 5

$$
FLZ050-056-061-142-242-148-248-149-249-151-251-155-255-
160-260-251200-
WEST CENTRAL FLORIDA

CITY           SKY/WX    TMP DP  RH WIND       PRES   REMARKS
CRYSTAL RIVER  FAIR      68  61  77 CALM      30.17R
INVERNESS      FAIR      63  63 100 CALM      30.18R
BROOKSVILLE    CLEAR     68  63  84 E7        30.17R
ZEPHYRHILLS    FAIR      65  60  84 E3        30.18R
CLEARWATER AIR FAIR      73  64  73 SE7       30.15R
ST PETE CLEARW CLEAR     74  65  73 SE9       30.15R
TAMPA INTL     CLEAR     75  65  70 E7        30.16R
TAMPA EXEC     CLEAR     68  63  83 CALM      30.17R
PLANT CITY     CLEAR     72  68  88 E5        30.18R
MACDILL AFB    CLEAR     73  68  86 E10       30.15R
PETER O KNIGHT CLEAR     75  68  78 E10       30.16R
ST PETERSBURG  CLEAR     77  66  68 SE17      30.13S
SARASOTA       CLEAR     72  64  76 E6        30.13R
VENICE         NOT AVBL

STATION/POSITION SKY/WX   TEMP    WIND        PRES    WAVE   SWELL
                          AIR SEA DIR/SP/G            HT/PER HT/PER
                          (F)     (DEG/KT/KT) (MB)    (FT/S) (FT/S)
27.3N   84.2W                 81                N/A     1
CLEARWATER BEACH           77 82  120/  7/ 12 1020.4R
MIDDLE TAMPA BAY           73     120/ 14/ 15 1020.6S
VENICE                     72 80   80/  7/  9 1020.2R

$$
FLZ066-069-070-075>078-162-262-165-265-251200-
SOUTHWEST FLORIDA AND KEYS

CITY           SKY/WX    TMP DP  RH WIND       PRES   REMARKS
PUNTA GORDA    CLEAR     69  67  93 E6        30.15S FOG
FT MYERS       CLEAR     74  69  85 E8        30.12S
SOUTHWEST INTL CLEAR     73  68  84 E8        30.13R
NAPLES         CLEAR     73  70  90 E8        30.12R
MARATHON       CLOUDY    77  71  82 E6        30.10R
KEY WEST NAS   TSTM      72  68  87 E18       30.11R FOG
KEY WEST INTL  CLOUDY    78  71  79 E13G22    30.10R THUNDER

STATION/POSITION SKY/WX   TEMP    WIND        PRES    WAVE   SWELL
                          AIR SEA DIR/SP/G            HT/PER HT/PER
                          (F)     (DEG/KT/KT) (MB)    (FT/S) (FT/S)
NAPLES                        85              1019.7R
26.0N   85.6W              79 81   80/ 12/ 14 1019.3R   1/ 4
DRY TORTUGAS               81      90/  7/  8 1018.9R
SAND KEY                   82     110/  8/ 10 1019.1R
LONG KEY                   80 85  120/ 10/ 11 1019.7R
MOLASSES REEF              81 82   90/ 15/ 16 1019.7

$$
FLZ067-068-071>074-168-172>174-251200-
SOUTHEAST FLORIDA

CITY           SKY/WX    TMP DP  RH WIND       PRES   REMARKS
W PALM BEACH   PTCLDY    79  67  66 E15       30.15R
BOCA RATON     CLEAR     77  66  69 E12       30.14
FT LAUDER-EXEC PTCLDY    77  67  71 E9        30.14R
FT LAUDERDALE  PTCLDY    78  66  66 E9        30.13R
POMPANO BEACH  CLEAR     78  68  71 E9        30.14R
PEMBROKE PINES CLEAR     77  66  68 E7        30.15R
OPA LOCKA      CLEAR     76  68  76 E7        30.14R
MIAMI          PTCLDY    78  67  68 E9        30.13R
WEST KENDALL   CLEAR     75  67  76 NE6       30.12R
HOMESTEAD      MOCLDY    79  66  65 E13       30.12R

STATION/POSITION SKY/WX   TEMP    WIND        PRES    WAVE   SWELL
                          AIR SEA DIR/SP/G            HT/PER HT/PER
                          (F)     (DEG/KT/KT) (MB)    (FT/S) (FT/S)
PORT EVERGLADES            80      70/ 10/ 14 1020.5R
VIRGINIA KEY               80 82   70/ 14/ 17 1019.9R
LAKE WORTH                 79 80   80/ 12/ 15 1020.2R
FOWEY ROCKS                80 83   80/ 17/ 18 1020.7R
SETTLEMENT POINT           78      70/ 15/ 17 1021.6R

$$





USA.gov is the U.S. government's official web portal to all federal, state and local government web resources and services.